This demonstration page uses our WeatherBlox Daily Observations layout. Learn more.

Left ArrowRight Arrow

39.01783, -85.05884

Hourly Observations for July 20, 2020

Temp ( °F °C ) Dew Point ( °F °C ) Humidity (%) Winds ( mph kmh ) Pressure ( in mb ) Visibility ( mi km ) Precip ( " mm )
12:52 am 00:52 Cloudy 74 23.3 71 21.7 91 91 N 6 9 29.97 1015 10 16 0.00 0.00
1:52 am 01:52 Partly Cloudy 75 23.9 71 21.7 88 88 Calm 29.96 1015 10 16 0.00 0.00
2:52 am 02:52 Mostly Cloudy 76 24.4 71 21.7 85 85 NW 3 6 29.97 1015 10 16 0.00 0.00
3:52 am 03:52 Cloudy 76 24.4 70 21.1 82 82 NW 9 15 29.98 1015 10 16 0.00 0.00
4:52 am 04:52 Cloudy 75 23.9 67 19.4 76 76 NNW 8 13 29.98 1015 10 16 0.00 0.00
5:52 am 05:52 Mostly Cloudy 74 23.3 67 19.4 79 79 N 3 6 29.99 1016 10 16 0.00 0.00
6:52 am 06:52 Mostly Cloudy 70 21.1 67 19.4 90 90 Calm 29.98 1015 10 16 0.00 0.00
7:52 am 07:52 Partly Cloudy 75 23.9 68 20 79 79 Calm 30.00 1016 10 16 0.00 0.00
8:52 am 08:52 Mostly Sunny 78 25.6 68 20 71 71 Calm 30.01 1016 10 16 0.00 0.00
9:52 am 09:52 Mostly Sunny 80 26.7 66 18.9 62 62 NNE 3 6 30.01 1016 10 16 0.00 0.00
10:52 am 10:52 Mostly Sunny 82 27.8 66 18.9 58 58 E 3 6 30.01 1016 10 16 0.00 0.00
11:52 am 11:52 Partly Cloudy 84 28.9 65 18.3 53 53 VRB 3 6 30.02 1017 10 16 0.00 0.00
12:52 pm 12:52 Mostly Sunny 86 30 66 18.9 51 51 Calm 30.01 1016 10 16 0.00 0.00
1:52 pm 13:52 Mostly Sunny 87 30.6 64 17.8 46 46 W 7 11 29.99 1016 10 16 0.00 0.00
2:52 pm 14:52 Partly Cloudy 88 31.1 65 18.3 46 46 W 9 15 29.97 1015 10 16 0.00 0.00
3:52 pm 15:52 Mostly Cloudy 89 31.7 67 19.4 48 48 WNW 9 15 29.96 1015 10 16 0.00 0.00
4:52 pm 16:52 Partly Cloudy 91 32.8 66 18.9 44 44 VRB 6 9 29.95 1014 10 16 0.00 0.00
5:52 pm 17:52 Mostly Cloudy 88 31.1 66 18.9 48 48 WNW 6 9 29.95 1014 10 16 0.00 0.00
6:52 pm 18:52 Mostly Cloudy 87 30.6 66 18.9 50 50 WNW 5 7 29.95 1014 10 16 0.00 0.00
7:52 pm 19:52 Mostly Cloudy 86 30 65 18.3 49 49 NW 6 9 29.94 1014 10 16 0.00 0.00
8:52 pm 20:52 Mostly Cloudy 80 26.7 68 20 67 67 WSW 3 6 29.96 1014 10 16 0.00 0.00
9:52 pm 21:52 Mostly Cloudy 79 26.1 70 21.1 74 74 W 5 7 29.97 1015 10 16 0.00 0.00
10:52 pm 22:52 Mostly Cloudy 77 25 70 21.1 79 79 SW 3 6 29.98 1015 10 16 0.00 0.00
11:52 pm 23:52 Mostly Cloudy 77 25 70 21.1 79 79 Calm 29.99 1016 10 16 0.00 0.00

Powered by AerisWeather